Regional Weather Roundup
Issued by NWS Charleston, SC

Current Version | Previous Version | Graphics & Text | Print | Product List | Glossary On
Versions: 1 2 3 4 5 6 7 8 9 10 11 12 13 14 15 16 17 18 19 20 21 22 23 24 25 26 27 28 29 30 31 32 33 34 35 36 37 38 39 40 41 42 43 44 45 46 47 48 49 50
000
ASUS42 KCHS 270110
RWRCHS

REGIONAL WEATHER ROUNDUP
NATIONAL WEATHER SERVICE CHARLESTON SC
800 PM EST FRI DEC 26 2014

NOTE: "FAIR" INDICATES FEW OR NO CLOUDS BELOW 12,000 FEET WITH NO
SIGNIFICANT WEATHER AND/OR OBSTRUCTIONS TO VISIBILITY.

NOT ALL STATIONS ARE QUALITY CONTROLLED BY THE NATIONAL
WEATHER SERVICE. USE DATA WITH CAUTION...ESPECIALLY
DEWPOINT OBSERVATIONS.

SCZ027-030-031-034>040-042>050-270200-
...SOUTHEAST SOUTH CAROLINA...

CITY           SKY/WX    TMP DP  RH WIND       PRES   REMARKS
N CHARLESTON   PTCLDY    50  46  86 CALM      30.32R
WATERFRONT PRK   N/A     52 N/A N/A N3          N/A
MOUNT PLEASANT FAIR      46  46 100 CALM      30.32S
PINOPOLIS        N/A     54  46  76 CALM      30.23R
MONCKS CORNER  FAIR      46  45  93 CALM      30.32R
SUMMERVILLE    FAIR      46  46 100 CALM      30.33R
BEAUFORT MCAS  CLEAR     48  45  89 CALM      30.31S
BEAUFORT ARPT  FAIR      48  48 100 NE3       30.30S
HILTON HEAD IS CLEAR     48  48 100 CALM      30.32S
WALTERBORO     CLEAR     45 N/A N/A CALM      30.32S
ALLENDALE      FAIR      46  43  87 CALM      30.31S

...SOUTHERN MIDLANDS AND PEE DEE...

CITY           SKY/WX    TMP DP  RH WIND       PRES   REMARKS
GEORGETOWN     NOT AVBL
KINGSTREE      NOT AVBL
ORANGEBURG     CLEAR     44  40  85 CALM      30.32R
BARNWELL         N/A     45  43  93 CALM      30.32R
AIKEN          FAIR      41  41 100 CALM      30.34S
MANNING        FAIR      43 N/A N/A CALM      30.33R
COLUMBIA       CLEAR     45  40  82 CALM      30.32R
SUMTER         CLEAR     44  38  82 CALM      30.31R
FLORENCE       CLEAR     45  40  82 CALM      30.33R
MYRTLE BEACH   CLEAR     46  45  93 CALM      30.33S
N MYRTLE BEACH CLEAR     44  42  93 CALM      30.32R

$$

GAZ063-065-086>088-099>101-113>116-118-119-134>141-150-270200-
...SOUTHEAST GEORGIA...

CITY           SKY/WX    TMP DP  RH WIND       PRES   REMARKS
SAVANNAH ARPT  MOCLDY    50  46  86 CALM      30.31R
HUNTER AAF     CLEAR     51  49  94 CALM      30.28S
FORT STEWART   CLEAR     47  45  92 N1        30.29R
STATESBORO     CLEAR     42  42 100 CALM      30.30S
SYLVANIA       PTCLDY    45  45  98 CALM      30.32R
CLAXTON        FAIR      45  45 100 CALM      30.31R

...CSRA...CENTRAL AND FAR SOUTHEAST GEORGIA...

CITY           SKY/WX    TMP DP  RH WIND       PRES   REMARKS
THOMSON        CLEAR     42  42 100 CALM      30.35R
AUGUSTA-BUSH   CLEAR     41  37  86 CALM      30.31R
AUGUSTA-DANIEL CLEAR     52  38  58 CALM      30.30S
SWAINSBORO     FAIR      45  45 100 CALM      30.31S
VIDALIA        CLEAR     46  43  87 CALM      30.30S
EASTMAN        FAIR      44  44 100 CALM      30.33R FOG
HAZLEHURST     FAIR      48  45  90 E3        30.28S
ALMA           CLEAR     45  43  93 CALM      30.29R
WAYCROSS       CLEAR     54  49  85 CALM      30.29R
JESUP          FAIR      52  50  93 CALM      30.30R
BAXLEY         FAIR      46  46 100 CALM      30.29R
BRUNSWICK      CLEAR     50  46  87 CALM      30.29S
SAINT SIMONS   CLEAR     55  51  86 NE7       30.28S

$$

SCZ027-028-034-036>038-045-046-048>050-GAZ119-141-270200-
...LAKE AND SUPPLEMENTAL COASTAL OBSERVATIONS...

STATION/POSITION TIME  TEMP    WIND        PRES    WAVE   SWELL
                       AIR SEA DIR/SP/G            HT/PER HT/PER/DIR
                 (UTC) (F)     (DEG/KT/KT) (MB)    (FT/S) (FT/S/D)
UPR LAKE MARION  NOT AVBL
WINYAH BAY       0000   48     310/  2     1025.0S
LAKE MURRAY      0000   48        CALM     1026.1R
ACE BASIN NERRS  0000   49        CALM     1026.0S
FORT PULASKI     0100   55 56   50/  7/  9 1026.2F
SAPELO ISLAND    0000   53      40/  4     1025.0S

$$

ANZ835-935-AMZ111-154-330-350-352-354-370-450-454-472-270200-
...C-MAN AND BUOY OBSERVATIONS...

STATION/POSITION TIME  TEMP    WIND        PRES    WAVE   SWELL
                       AIR SEA DIR/SP/G            HT/PER HT/PER/DIR
                 (UTC) (F)     (DEG/KT/KT) (MB)    (FT/S) (FT/S/D)
BUOY 41004       0100   62 72   30/ 10/ 12 1025.7R   3/ 7   2/ 7
BUOY 41008       0100   59 58   50/ 12/ 14 1025.3R   3/ 4   2/130/ 7
FOLLY BEACH CMAN 0000   54      CALM  /  1 1026.7R
CAPERS NEARSHORE 0000   55      90/  6/  6   N/A
FRIPP NEARSHORE  NOT AVBL


STATION/POSITION TIME  TEMP    WIND        PRES    WAVE   SWELL
                       AIR SEA DIR/SP/G            HT/PER HT/PER/DIR
                 (UTC) (F)     (DEG/KT/KT) (MB)    (FT/S) (FT/S/D)
5E ST. MARYS GA  0100      61                N/A     3/ 5
FRYING PAN BUOY  0100   59 69   60/ 10/ 12 1026.9R   2/ 7   2/160/ 7
BUOY 41025       0100   55                 1026.9R   3/ 9
CAPE LOOKOUT NC  0000   55      20/  5/  5 1026.3R
BUOY 41002       0028   67 74   90/  6/  8 1025.8R   3/ 6   3/ 20/ 6
BUOY 41010       0100   74 76   60/  6/ 10 1023.6R   3/ 5   2/ 20/ 5
ST AUGUSTINE FL  0100   62     360/ 12/ 13 1025.3R


$$


USA.gov is the U.S. government's official web portal to all federal, state and local government web resources and services.